Time,TemperatureF,DewpointF,PressureIn,WindDirection,WindDirectionDegrees,WindSpeedMPH,WindSpeedGustMPH,Humidity,HourlyPrecipIn,Conditions,Clouds,dailyrainin,SoftwareType,DateUTC
2016-02-11 00:03:00,26.0,26.0,-100.00,South,184,4.0,6.0,100,-99.99,,,-99.99,,2016-02-11 07:03:00,
2016-02-11 00:13:00,26.0,26.0,-100.00,South,184,4.0,6.0,100,-99.99,,,-99.99,,2016-02-11 07:13:00,
2016-02-11 00:44:00,28.0,28.0,-100.00,South,173,12.0,17.0,100,-99.99,,,-99.99,,2016-02-11 07:44:00,
2016-02-11 00:54:00,28.0,28.0,-100.00,South,173,12.0,17.0,100,-99.99,,,-99.99,,2016-02-11 07:54:00,
2016-02-11 01:04:00,28.0,28.0,-100.00,South,173,12.0,17.0,100,-99.99,,,-99.99,,2016-02-11 08:04:00,
2016-02-11 01:12:00,28.0,28.0,-100.00,South,173,12.0,17.0,100,-99.99,,,-99.99,,2016-02-11 08:12:00,
2016-02-11 01:44:00,27.0,27.0,-100.00,South,182,10.0,16.0,100,-99.99,,,-99.99,,2016-02-11 08:44:00,
2016-02-11 01:54:00,27.0,27.0,-100.00,South,182,10.0,16.0,100,-99.99,,,-99.99,,2016-02-11 08:54:00,
2016-02-11 02:03:00,27.0,27.0,-100.00,South,182,10.0,16.0,100,-99.99,,,-99.99,,2016-02-11 09:03:00,
2016-02-11 02:13:00,27.0,27.0,-100.00,South,182,10.0,16.0,100,-99.99,,,-99.99,,2016-02-11 09:13:00,
2016-02-11 02:47:00,27.0,27.0,-100.00,SE,146,8.0,12.0,100,-99.99,,,-99.99,,2016-02-11 09:47:00,
2016-02-11 02:54:00,27.0,27.0,-100.00,SE,146,8.0,12.0,100,-99.99,,,-99.99,,2016-02-11 09:54:00,
2016-02-11 03:13:00,27.0,27.0,-100.00,SE,146,8.0,12.0,100,-99.99,,,-99.99,,2016-02-11 10:13:00,
2016-02-11 03:44:00,25.0,25.0,-100.00,NE,42,2.0,6.0,100,-99.99,,,-99.99,,2016-02-11 10:44:00,
2016-02-11 04:03:00,25.0,25.0,-100.00,NE,42,2.0,6.0,100,-99.99,,,-99.99,,2016-02-11 11:03:00,
2016-02-11 04:13:00,25.0,25.0,-100.00,NE,42,2.0,6.0,100,-99.99,,,-99.99,,2016-02-11 11:13:00,
2016-02-11 04:44:00,22.0,22.0,-100.00,NNE,12,4.0,8.0,100,-99.99,,,-99.99,,2016-02-11 11:44:00,
2016-02-11 04:54:00,22.0,22.0,-100.00,NNE,12,4.0,8.0,100,-99.99,,,-99.99,,2016-02-11 11:54:00,
2016-02-11 05:03:00,22.0,22.0,-100.00,NNE,12,4.0,8.0,100,-99.99,,,-99.99,,2016-02-11 12:03:00,
2016-02-11 05:13:00,22.0,22.0,-100.00,NNE,12,4.0,8.0,100,-99.99,,,-99.99,,2016-02-11 12:13:00,
2016-02-11 05:44:00,21.0,21.0,-100.00,SSW,196,5.0,6.0,100,-99.99,,,-99.99,,2016-02-11 12:44:00,
2016-02-11 05:54:00,21.0,21.0,-100.00,SSW,196,5.0,6.0,100,-99.99,,,-99.99,,2016-02-11 12:54:00,
2016-02-11 06:03:00,21.0,21.0,-100.00,SSW,196,5.0,6.0,100,-99.99,,,-99.99,,2016-02-11 13:03:00,
2016-02-11 06:13:00,21.0,21.0,-100.00,SSW,196,5.0,6.0,100,-99.99,,,-99.99,,2016-02-11 13:13:00,
2016-02-11 06:44:00,27.0,27.0,-100.00,South,186,12.0,16.0,100,-99.99,,,-99.99,,2016-02-11 13:44:00,
2016-02-11 07:13:00,27.0,27.0,-100.00,South,186,12.0,16.0,100,-99.99,,,-99.99,,2016-02-11 14:13:00,
2016-02-11 07:44:00,22.0,22.0,-100.00,ENE,68,6.0,11.0,100,-99.99,,,-99.99,,2016-02-11 14:44:00,
2016-02-11 07:54:00,22.0,22.0,-100.00,ENE,68,6.0,11.0,100,-99.99,,,-99.99,,2016-02-11 14:54:00,
2016-02-11 08:03:00,22.0,22.0,-100.00,ENE,68,6.0,11.0,100,-99.99,,,-99.99,,2016-02-11 15:03:00,
2016-02-11 08:12:00,22.0,22.0,-100.00,ENE,68,6.0,11.0,100,-99.99,,,-99.99,,2016-02-11 15:12:00,
2016-02-11 12:19:00,36.0,28.0,-100.00,NNE,31,6.0,9.0,73,-99.99,,,-99.99,,2016-02-11 19:19:00,
2016-02-11 12:44:00,36.0,28.0,-100.00,NNE,31,6.0,9.0,73,-99.99,,,-99.99,,2016-02-11 19:44:00,
2016-02-11 12:54:00,36.0,28.0,-100.00,NNE,31,6.0,9.0,73,-99.99,,,-99.99,,2016-02-11 19:54:00,
2016-02-11 13:03:00,36.0,28.0,-100.00,NNE,31,6.0,9.0,73,-99.99,,,-99.99,,2016-02-11 20:03:00,
2016-02-11 13:13:00,36.0,28.0,-100.00,NNE,31,6.0,9.0,73,-99.99,,,-99.99,,2016-02-11 20:13:00,
2016-02-11 13:19:00,38.0,30.0,-100.00,NE,44,8.0,11.0,74,-99.99,,,-99.99,,2016-02-11 20:19:00,
2016-02-11 13:44:00,38.0,30.0,-100.00,NE,44,8.0,11.0,74,-99.99,,,-99.99,,2016-02-11 20:44:00,
2016-02-11 13:54:00,38.0,30.0,-100.00,NE,44,8.0,11.0,74,-99.99,,,-99.99,,2016-02-11 20:54:00,
2016-02-11 14:03:00,38.0,30.0,-100.00,NE,44,8.0,11.0,74,-99.99,,,-99.99,,2016-02-11 21:03:00,
2016-02-11 14:13:00,38.0,30.0,-100.00,NE,44,8.0,11.0,74,-99.99,,,-99.99,,2016-02-11 21:13:00,
2016-02-11 14:19:00,43.0,32.0,-100.00,SE,143,2.0,5.0,64,-99.99,,,-99.99,,2016-02-11 21:19:00,
2016-02-11 14:44:00,43.0,32.0,-100.00,SE,143,2.0,5.0,64,-99.99,,,-99.99,,2016-02-11 21:44:00,
2016-02-11 15:03:00,43.0,32.0,-100.00,SE,143,2.0,5.0,64,-99.99,,,-99.99,,2016-02-11 22:03:00,
2016-02-11 15:19:00,43.0,31.0,-100.00,South,177,12.0,15.0,63,-99.99,,,-99.99,,2016-02-11 22:19:00,
2016-02-11 16:13:00,43.0,31.0,-100.00,South,177,12.0,-999.0,63,-99.99,,,-99.99,,2016-02-11 23:13:00,
2016-02-11 16:19:00,42.0,32.0,-100.00,South,169,11.0,15.0,67,-99.99,,,-99.99,,2016-02-11 23:19:00,
2016-02-11 16:54:00,42.0,32.0,-100.00,South,169,11.0,15.0,67,-99.99,,,-99.99,,2016-02-11 23:54:00,
2016-02-11 17:13:00,42.0,32.0,-100.00,South,169,11.0,15.0,67,-99.99,,,-99.99,,2016-02-12 00:13:00,
2016-02-11 17:19:00,37.0,31.0,-100.00,SE,141,7.0,11.0,79,-99.99,,,-99.99,,2016-02-12 00:19:00,
2016-02-11 17:44:00,37.0,31.0,-100.00,SE,141,7.0,11.0,79,-99.99,,,-99.99,,2016-02-12 00:44:00,
2016-02-11 17:54:00,37.0,31.0,-100.00,SE,141,7.0,11.0,79,-99.99,,,-99.99,,2016-02-12 00:54:00,
2016-02-11 18:04:00,37.0,31.0,-100.00,SE,141,7.0,11.0,79,-99.99,,,-99.99,,2016-02-12 01:04:00,
2016-02-11 18:44:00,32.0,32.0,-100.00,NNE,29,2.0,7.0,100,-99.99,,,-99.99,,2016-02-12 01:44:00,
2016-02-11 18:54:00,32.0,32.0,-100.00,NNE,29,2.0,7.0,100,-99.99,,,-99.99,,2016-02-12 01:54:00,
2016-02-11 19:04:00,32.0,32.0,-100.00,NNE,29,2.0,7.0,100,-99.99,,,-99.99,,2016-02-12 02:04:00,